Location: Chassagnes
(44.4047°N, 4.1657°E)
Time: 12:46:41
(UTC+00:00)

Cosmos 1408 - Pass Details

Date: 27 October 2020
Orbit: 470 x 492 km, 82.6° (Epoch: 23 November)

Event Time Altitude Azimuth Distance (km) Brightness Sun altitude
Rises 17:30:09 0° 7° (N) 2,553 6.1 -9.7°
Reaches altitude 10° 17:32:46 10° 27° (NNE) 1,672 4.9 -10.1°
Maximum altitude 17:35:21 18° 72° (ENE) 1,255 4.0 -10.6°
Enters shadow 17:36:51 15° 102° (ESE) 1,414 4.3 -10.8°
